Measurement date,Total daily rainfall,Maximum daily air temperature,Minimum daily air temperature
Date ,Rainfall,Air temperature,Air temperature
Units: Year month day,Units: millimetre,Units: degree Celsius,Units: degree Celsius
2013-01-01,0.2,7.74,1.95
2013-01-02,0,10.22,2.57
2013-01-03,0,11.87,7.10
2013-01-04,0.2,10.32,6.80
2013-01-05,0,11.63,4.43
2013-01-06,0,9.98,4.81
2013-01-07,0,10.51,6.01
2013-01-08,3,11.47,6.01
2013-01-09,1.4,8.47,-0.60
2013-01-10,0.2,3.15,-0.58
2013-01-11,2.6,6.75,1.18
2013-01-12,4.2,4.46,1.13
2013-01-13,0.2,3.44,-2.61
2013-01-14,8.6,4.13,-0.51
2013-01-15,0.2,3.51,-4.47
2013-01-16,0,-2.57,-5.78
2013-01-17,0,1.44,-3.21
2013-01-18,0,1.12,-2.51
2013-01-19,0,0.21,-1.49
2013-01-20,0,0.35,-1.08
2013-01-21,0,2.15,-4.35
2013-01-22,0.2,1.02,-5.41
2013-01-23,0,0.77,-0.52
2013-01-24,4.2,3.07,-5.40
2013-01-25,4.8,2.50,-6.63
2013-01-26,14,7.98,1.17
2013-01-27,5.8,10.89,3.38
2013-01-28,1.4,10.80,0.19
2013-01-29,1.4,13.47,8.20
2013-01-30,5,11.63,5.89
2013-01-31,6.4,9.99,4.65
2013-02-01,4.6,7.92,2.41
2013-02-02,0,5.54,-1.98
2013-02-03,0,10.03,-2.82
2013-02-04,0,10.68,6.25
2013-02-05,2.6,6.47,0.73
2013-02-06,2,6.12,0.47
2013-02-07,1.6,4.52,-2.39
2013-02-08,0,7.18,-1.52
2013-02-09,5.2,3.78,0.86
2013-02-10,15.2,5.36,0.40
2013-02-11,6.4,1.64,0.17
2013-02-12,0,1.64,0.09
2013-02-13,1.2,3.22,-0.98
2013-02-14,7.8,10.67,3.22
2013-02-15,0,10.61,-1.76
2013-02-16,0.2,11.09,-1.20
2013-02-17,0,8.99,-2.48
2013-02-18,0,8.02,-1.96
2013-02-19,0.2,10.19,-5.49
2013-02-20,0,4.50,0.33
2013-02-21,0,2.05,-0.17
2013-02-22,0,0.89,-0.04
2013-02-23,0,2.33,-0.16
2013-02-24,0,2.51,-0.60
2013-02-25,0.2,4.29,-0.36
2013-02-26,0.2,4.44,2.29
2013-02-27,0,7.40,1.94
2013-02-28,0,8.85,-0.54
2013-03-01,0,7.08,3.08
2013-03-02,0,9.61,-3.56
2013-03-03,0,8.25,-5.87
2013-03-04,0,10.02,0.00
2013-03-05,0,15.18,-3.44
2013-03-06,0.2,8.81,2.59
2013-03-07,11.8,8.59,5.20
2013-03-08,10.4,8.53,5.22
2013-03-09,0.2,6.16,2.88
2013-03-10,0.2,2.88,-0.26
2013-03-11,0,1.22,-2.81
2013-03-12,0,3.64,-3.09
2013-03-13,0,7.35,-4.13
2013-03-14,0.4,8.13,-7.71
2013-03-15,2.8,8.91,2.90
2013-03-16,13,9.17,3.01
2013-03-17,0.4,6.66,-1.11
2013-03-18,0.2,9.64,-2.79
2013-03-19,0.2,6.48,0.35
2013-03-20,0,5.49,1.32
2013-03-21,0.4,5.87,-1.86
2013-03-22,11.4,4.78,0.61
2013-03-23,12.2,1.22,-0.27
2013-03-24,2.4,0.43,-1.68
2013-03-25,1.4,2.98,-0.26
2013-03-26,0,2.88,0.06
2013-03-27,0,2.80,-0.95
2013-03-28,0,4.05,-2.04
2013-03-29,0,4.71,-2.11
2013-03-30,0,5.78,-2.71
2013-03-31,0,6.00,-6.83
2013-04-01,0,4.59,-0.53
2013-04-02,0,8.63,-2.04
2013-04-03,0,7.48,-2.29
2013-04-04,0,6.30,0.78
2013-04-05,0,9.16,-0.94
2013-04-06,0,10.83,-1.94
2013-04-07,0,10.95,-4.46
2013-04-08,0,10.24,1.32
2013-04-09,0,11.45,1.54
2013-04-10,0.4,12.98,2.53
2013-04-11,5.8,10.20,4.96
2013-04-12,3.2,14.44,2.65
2013-04-13,3.4,11.60,0.23
2013-04-14,2.6,19.34,10.13
2013-04-15,0,19.09,7.24
2013-04-16,1,16.13,4.31
2013-04-17,0,17.36,3.52
2013-04-18,2.2,13.18,7.52
2013-04-19,0.2,13.73,2.97
2013-04-20,0,17.12,-1.30
2013-04-21,0,13.49,-0.68
2013-04-22,0,15.43,3.38
2013-04-23,0,20.44,3.36
2013-04-24,0,16.54,3.65
2013-04-25,2.4,18.54,7.22
2013-04-26,1.6,12.48,3.09
2013-04-27,0.4,11.53,0.17
2013-04-28,0,14.25,-2.43
2013-04-29,0,14.03,1.70
2013-04-30,0,13.08,-1.82
2013-05-01,0,16.63,-2.55
2013-05-02,0,18.47,1.60
2013-05-03,0,17.73,0.51
2013-05-04,1,16.41,5.99
2013-05-05,0,19.83,3.97
2013-05-06,0,23.05,1.53
2013-05-07,0,23.42,4.25
2013-05-08,2.2,20.61,7.14
2013-05-09,0.6,14.81,4.75
2013-05-10,0.4,17.11,8.09
2013-05-11,2,14.92,3.63
2013-05-12,1.4,12.63,4.09
2013-05-13,3.8,14.28,4.42
2013-05-14,18.4,10.95,1.52
2013-05-15,5.8,14.39,4.52
2013-05-16,0.8,16.64,-0.79
2013-05-17,0,13.63,5.61
2013-05-18,0,15.13,8.07
2013-05-19,0,19.10,7.06
2013-05-20,0.2,18.55,9.22
2013-05-21,0.4,15.69,9.24
2013-05-22,0,14.93,5.72
2013-05-23,5.4,12.50,4.36
2013-05-24,4.6,10.91,4.28
2013-05-25,0.2,17.59,3.58
2013-05-26,0,19.80,2.20
2013-05-27,0,18.86,1.91
2013-05-28,19.6,13.30,8.18
2013-05-29,4.8,14.16,7.98
2013-05-30,6.2,15.84,11.23
2013-05-31,0,21.81,10.06
2013-06-01,0,17.24,6.60
2013-06-02,0,18.54,2.89
2013-06-03,0,20.10,3.09
2013-06-04,0,20.14,4.67
2013-06-05,0,16.89,9.36
2013-06-06,0,19.94,8.47
2013-06-07,0,20.84,7.14
2013-06-08,0,17.71,9.46
2013-06-09,0,18.95,8.47
2013-06-10,0,16.31,7.06
2013-06-11,0.4,20.83,7.85
2013-06-12,2.6,19.34,12.95
2013-06-13,1.2,19.32,10.27
2013-06-14,1.4,19.28,7.28
2013-06-15,1.8,17.31,8.71
2013-06-16,0,18.51,9.34
2013-06-17,2.2,18.98,11.61
2013-06-18,0,23.04,11.11
2013-06-19,0,25.92,13.98
2013-06-20,3.2,21.49,12.48
2013-06-21,0,23.37,10.95
2013-06-22,2.8,18.17,11.32
2013-06-23,4.2,17.90,10.99
2013-06-24,0,17.70,6.61
2013-06-25,0,21.81,6.59
2013-06-26,0,21.47,10.70
2013-06-27,6.8,19.23,8.89
2013-06-28,2.8,21.34,12.16
2013-06-29,0,22.00,11.05
2013-06-30,0,23.46,11.49
2013-07-01,0,19.64,10.17
2013-07-02,0,18.21,7.90
2013-07-03,1.4,18.78,10.80
2013-07-04,0,23.71,10.40
2013-07-05,0,26.14,7.47
2013-07-06,0,28.30,10.59
2013-07-07,0,28.84,9.43
2013-07-08,0,25.71,14.27
2013-07-09,0,26.71,11.69
2013-07-10,0,22.92,10.69
2013-07-11,0,22.88,10.85
2013-07-12,0,28.22,8.57
2013-07-13,0,31.35,10.26
2013-07-14,0,28.19,13.93
2013-07-15,0,29.80,7.99
2013-07-16,0,29.72,10.83
2013-07-17,0,30.85,10.36
2013-07-18,0,29.37,13.79
2013-07-19,0,28.84,12.79
2013-07-20,0,24.08,15.50
2013-07-21,0.4,23.53,14.51
2013-07-22,0.4,32.07,15.80
2013-07-23,19.4,28.20,16.76
2013-07-24,0,27.28,14.16
2013-07-25,1.2,28.21,14.73
2013-07-26,0.2,26.55,10.63
2013-07-27,21,26.24,8.47
2013-07-28,3.4,26.23,14.48
2013-07-29,0.2,25.75,14.71
2013-07-30,0,25.29,13.89
2013-07-31,2,22.76,14.81
2013-08-01,0,33.74,14.66
2013-08-02,1.2,27.10,14.77
2013-08-03,0.8,24.46,12.32
2013-08-04,3.8,20.38,11.52
2013-08-05,7.2,24.97,10.95
2013-08-06,0,22.01,6.78
2013-08-07,0,22.81,10.51
2013-08-08,0,25.92,6.75
2013-08-09,0,22.52,12.58
2013-08-10,0,20.98,12.45
2013-08-11,0.2,21.48,9.09
2013-08-12,0,20.07,10.43
2013-08-13,0.4,17.77,6.94
2013-08-14,0.2,21.51,7.14
2013-08-15,1.4,24.84,16.21
2013-08-16,7.6,24.57,11.65
2013-08-17,0.8,19.64,9.15
2013-08-18,0.2,23.15,12.09
2013-08-19,0,20.40,8.61
2013-08-20,0,24.77,7.68
2013-08-21,0,25.67,9.30
2013-08-22,5.2,26.37,15.31
2013-08-23,0,24.88,13.46
2013-08-24,1.6,19.82,13.30
2013-08-25,0.4,23.50,12.30
2013-08-26,0,25.86,14.03
2013-08-27,0,23.29,10.60
2013-08-28,0,21.65,10.10
2013-08-29,0,23.60,8.60
2013-08-30,0.2,24.68,14.43
2013-08-31,0,20.00,6.14
2013-09-01,0,22.08,5.26
2013-09-02,0,24.28,9.33
2013-09-03,0,26.55,8.05
2013-09-04,0,28.92,8.53
2013-09-05,0,25.50,7.27
2013-09-06,5,17.04,6.76
2013-09-07,0.2,19.16,3.74
2013-09-08,0.2,19.06,3.46
2013-09-09,6.6,17.35,4.60
2013-09-10,0,16.71,7.38
2013-09-11,3.8,16.09,7.08
2013-09-12,2,22.37,12.41
2013-09-13,14,17.85,9.17
2013-09-14,0.4,15.75,5.70
2013-09-15,1,15.12,2.16
2013-09-16,0.8,15.05,6.95
2013-09-17,6.8,11.62,7.98
2013-09-18,0.2,15.85,6.49
2013-09-19,0.2,20.04,3.58
2013-09-20,0,18.22,8.21
2013-09-21,0,23.25,7.86
2013-09-22,0.2,20.62,13.85
2013-09-23,0,17.95,14.37
2013-09-24,0,19.90,10.34
2013-09-25,0,20.71,10.67
2013-09-26,0,17.79,12.37
2013-09-27,0,18.96,10.24
2013-09-28,0,19.22,9.42
2013-09-29,0,20.00,11.70
2013-09-30,0,18.96,12.56
2013-10-01,0,18.21,10.22
2013-10-02,0.4,20.47,13.60
2013-10-03,1.2,19.22,14.39
2013-10-04,5.4,19.58,14.01
2013-10-05,0.2,18.53,8.27
2013-10-06,0,19.73,4.84
2013-10-07,0,19.84,8.23
2013-10-08,0,21.19,8.54
2013-10-09,0.2,14.86,6.20
2013-10-10,0,11.26,5.63
2013-10-11,1.2,13.74,6.56
2013-10-12,7,15.05,9.50
2013-10-13,5.8,11.13,8.52
2013-10-14,6.8,11.23,6.05
2013-10-15,0,14.25,4.73
2013-10-16,4.6,16.25,2.72
2013-10-17,0,17.13,7.84
2013-10-18,4.6,15.99,6.05
2013-10-19,9.2,19.15,8.82
2013-10-20,4.4,18.93,10.08
2013-10-21,5.2,17.39,10.97
2013-10-22,9,17.62,12.80
2013-10-23,3.4,15.59,4.31
2013-10-24,0.2,16.61,2.01
2013-10-25,2.6,19.88,12.38
2013-10-26,3.6,16.19,10.20
2013-10-27,3,15.21,8.72
2013-10-28,29.8,12.36,6.96
2013-10-29,0.2,12.12,0.87
2013-10-30,0,14.59,0.21
2013-10-31,5.4,12.78,5.00
2013-11-01,3.2,14.00,6.26
2013-11-02,0.6,14.71,8.73
2013-11-03,4,12.01,5.64
2013-11-04,4.4,10.22,0.60
2013-11-05,3.6,12.04,-0.40
2013-11-06,5.6,14.05,7.54
2013-11-07,0,11.05,3.62
2013-11-08,7,7.88,1.05
2013-11-09,1.6,7.68,0.72
2013-11-10,0.2,9.56,-0.44
2013-11-11,8,14.10,1.68
2013-11-12,2.6,12.39,-1.01
2013-11-13,1,9.51,-2.30
2013-11-14,0.8,8.33,3.43
2013-11-15,0,8.37,-1.90
2013-11-16,0.2,9.45,2.25
2013-11-17,0,9.76,2.09
2013-11-18,1.2,8.74,3.85
2013-11-19,0.2,5.35,-3.52
2013-11-20,6.8,8.10,-3.30
2013-11-21,1.2,8.61,2.40
2013-11-22,0.4,7.09,1.18
2013-11-23,0,6.64,-2.79
2013-11-24,0,8.00,1.65
2013-11-25,0,6.49,-0.83
2013-11-26,0,5.30,-3.88
2013-11-27,0.2,11.07,5.07
2013-11-28,0,8.89,5.29
2013-11-29,0,10.24,5.73
2013-11-30,0,7.64,0.04
2013-12-01,0.2,9.52,0.92
2013-12-02,0,8.61,3.23
2013-12-03,0,7.64,4.09
2013-12-04,0,7.62,-1.78
2013-12-05,0.2,11.44,-1.66
2013-12-06,0,8.00,1.73
2013-12-07,0,9.83,4.25
2013-12-08,0.2,10.63,4.75
2013-12-09,0.2,11.05,0.98
2013-12-10,0,9.56,1.05
2013-12-11,0.2,5.53,-2.53
2013-12-12,1.4,10.93,-1.86
2013-12-13,2.4,13.39,6.47
2013-12-14,0.4,11.97,1.77
2013-12-15,2,13.76,4.66
2013-12-16,4.4,13.73,5.64
2013-12-17,0.8,8.09,-1.13
2013-12-18,12.2,10.46,0.75
2013-12-19,1,8.01,0.08
2013-12-20,0.6,10.35,-0.10
2013-12-21,1.2,12.74,7.26
2013-12-22,3.8,7.49,0.81
2013-12-23,12.4,11.72,1.07
2013-12-24,10.8,11.78,3.46
2013-12-25,0.2,8.08,-0.52
2013-12-26,1,6.85,0.23
2013-12-27,1.8,11.32,3.99
2013-12-28,0,6.71,-1.25
2013-12-29,0.4,7.47,-1.45
2013-12-30,5,10.18,2.63
2013-12-31,2.2,9.20,3.89
2014-01-01,10.2,10.71,3.87
2014-01-02,1.4,9.42,3.38
2014-01-03,7.4,10.21,4.38
2014-01-04,9.4,6.57,1.80
2014-01-05,8.6,11.69,-0.04
2014-01-06,5.4,11.92,7.78
2014-01-07,1.2,10.50,6.85
2014-01-08,4.4,10.02,6.23
2014-01-09,4.6,10.37,0.41
2014-01-10,0.6,8.33,0.33
2014-01-11,1.2,8.22,-3.70
2014-01-12,3.8,8.63,-3.93
2014-01-13,3.8,8.73,2.00
2014-01-14,4.8,6.11,-1.46
2014-01-15,10.4,12.98,5.70
2014-01-16,7,9.54,3.59
2014-01-17,1.6,9.38,1.21
2014-01-18,1.2,9.56,1.99
2014-01-19,1,7.97,-1.63
2014-01-20,0,6.18,-3.54
2014-01-21,3.4,6.45,-3.20
2014-01-22,0.8,9.36,3.21
2014-01-23,1.4,8.89,1.01
2014-01-24,10.4,7.00,0.96
2014-01-25,3.8,10.68,2.71
2014-01-26,4.6,10.60,1.48
2014-01-27,0,8.74,0.66
2014-01-28,5.2,8.93,4.53
2014-01-29,8.2,5.98,2.65
2014-01-30,0.8,2.89,1.62
2014-01-31,5.4,8.37,1.44
2014-02-01,4.6,8.35,0.94
2014-02-02,0,8.36,3.63
2014-02-03,0,7.90,4.13
2014-02-04,3.4,8.79,1.20
2014-02-05,6,9.18,5.06
2014-02-06,6.6,7.76,4.37
2014-02-07,9.8,8.65,2.83
2014-02-08,2.6,10.32,5.24
2014-02-09,3.4,9.11,1.50
2014-02-10,0.2,7.87,-1.49
2014-02-11,3,7.80,0.65
2014-02-12,3.2,9.38,1.66
2014-02-13,0.2,8.00,1.99
2014-02-14,7.6,10.52,1.10
2014-02-15,1.2,9.37,2.71
2014-02-16,0,10.33,-0.11
2014-02-17,2.2,9.85,1.93
2014-02-18,2,11.39,3.64
2014-02-19,1,12.74,1.66
2014-02-20,1.6,13.48,1.95
2014-02-21,1,9.11,1.82
2014-02-22,0.2,12.02,2.39
2014-02-23,0.4,12.87,8.28
2014-02-24,2.4,13.60,6.91
2014-02-25,1.2,12.12,3.83
2014-02-26,3.4,11.27,2.42
2014-02-27,9.8,10.93,1.00
2014-02-28,0,7.02,0.83
2014-03-01,3.6,10.82,-3.52
2014-03-02,6.8,10.09,0.27
2014-03-03,0,8.01,-0.68
2014-03-04,0,10.85,-2.37
2014-03-05,0,12.08,-2.47
2014-03-06,2,11.05,4.94
2014-03-07,0.6,15.52,0.74
2014-03-08,0,16.30,0.21
2014-03-09,0,20.86,1.43
2014-03-10,0,11.95,1.10
2014-03-11,0,11.90,4.55
2014-03-12,0,11.22,0.24
2014-03-13,0.2,11.50,0.41
2014-03-14,0.2,15.36,-0.03
2014-03-15,0,17.75,5.68
2014-03-16,0,19.25,3.68
2014-03-17,0,15.40,5.67
2014-03-18,0.8,13.37,5.97
2014-03-19,0,14.76,5.49
2014-03-20,3,15.18,6.69
2014-03-21,3,12.13,3.02
2014-03-22,0.8,10.53,0.99
2014-03-23,2.2,10.14,-2.02
2014-03-24,0.2,12.30,-4.76
2014-03-25,8.2,8.29,4.25
2014-03-26,0.6,9.26,0.29
2014-03-27,0.2,9.76,0.17
2014-03-28,4.4,11.08,0.99
2014-03-29,0,18.45,6.01
2014-03-30,0,20.41,5.50
2014-03-31,0.6,15.99,6.71
2014-04-01,1.4,15.92,7.45
2014-04-02,0,16.32,9.07
2014-04-03,8.6,11.35,8.44
2014-04-04,0.2,13.79,4.43
2014-04-05,0.6,15.15,3.87
2014-04-06,2.4,17.25,11.88
2014-04-07,5.6,15.02,7.24
2014-04-08,0,12.88,3.02
2014-04-09,0,16.85,1.00
2014-04-10,0,15.23,1.12
2014-04-11,0,15.63,1.32
2014-04-12,0,14.57,2.49
2014-04-13,0,15.92,2.00
2014-04-14,0,15.08,4.59
2014-04-15,0,15.06,0.00
2014-04-16,0,19.41,-0.85
2014-04-17,0,14.55,4.23
2014-04-18,0,13.19,0.57
2014-04-19,0,13.81,-1.38
2014-04-20,9.8,13.35,5.52
2014-04-21,0.2,18.89,4.49
2014-04-22,0.8,17.55,9.26
2014-04-23,2.4,14.60,5.36
2014-04-24,0.2,16.11,1.67
2014-04-25,23.8,9.84,5.63
2014-04-26,0.8,16.57,5.54
2014-04-27,1.4,14.79,7.61
2014-04-28,0,16.59,8.39
2014-04-29,0,16.63,3.87
2014-04-30,0,18.20,9.50
2014-05-01,11,13.80,8.20
2014-05-02,0,11.80,3.40
2014-05-03,0,14.10,0.30
2014-05-04,0,16.40,4.80
2014-05-05,1,18.40,3.80
2014-05-06,2,16.80,10.60
2014-05-07,0,15.10,9.80
2014-05-08,3,15.50,10.60
2014-05-09,0,16.20,10.70
2014-05-10,5,15.80,9.80
2014-05-11,0,13.10,9.20
2014-05-12,1,14.70,8.90
2014-05-13,1,15.40,7.80
2014-05-14,0,18.20,5.80
2014-05-15,0,20.40,6.40
2014-05-16,0,21.80,7.70
2014-05-17,0,22.40,9.80
2014-05-18,0,22.60,10.40
2014-05-19,0,24.70,9.10
2014-05-20,1,19.10,9.70
2014-05-21,0,19.10,5.90
2014-05-22,19,15.20,10.50
2014-05-23,3,14.20,10.50
2014-05-24,8,16.40,7.70
2014-05-25,3,17.40,8.80
2014-05-26,2,13.90,5.90
2014-05-27,1,14.70,9.70
2014-05-28,6,12.80,9.70
2014-05-29,1,17.80,11.30
2014-05-30,0,14.60,10.80
2014-05-31,0,18.20,10.20
2014-06-01,0,21.20,7.30
2014-06-02,0,18.80,12.00
2014-06-03,1,18.80,12.10
2014-06-04,16,13.00,8.70
2014-06-05,0,18.10,7.80
2014-06-06,0,22.10,5.70
2014-06-07,6,ND,ND
2014-06-08,2,ND,ND
2014-06-09,1,ND,ND
2014-06-10,0,ND,ND
2014-06-11,0,ND,ND
2014-06-12,0,ND,ND
2014-06-13,0,ND,ND
2014-06-14,0,ND,ND
2014-06-15,0,ND,ND
2014-06-16,0,ND,ND
2014-06-17,0,ND,ND
2014-06-18,0,ND,ND
2014-06-19,0,ND,ND
2014-06-20,0,ND,ND
2014-06-21,0,ND,ND
2014-06-22,0,ND,ND
2014-06-23,0,ND,ND
2014-06-24,0,ND,ND
2014-06-25,0,ND,ND
2014-06-26,2,ND,ND
2014-06-27,34,ND,ND
2014-06-28,6,ND,ND
2014-06-29,0,ND,ND
2014-06-30,0,ND,ND
2014-07-01,0,ND,ND
2014-07-02,0,ND,ND
2014-07-03,0,ND,ND
2014-07-04,0,ND,ND
2014-07-05,6,ND,ND
2014-07-06,3,ND,ND
2014-07-07,13,ND,ND
2014-07-08,0,ND,ND
2014-07-09,0,ND,ND
2014-07-10,0,ND,ND
2014-07-11,0,ND,ND
2014-07-12,0,ND,ND
2014-07-13,0,ND,ND
2014-07-14,0,ND,ND
2014-07-15,0,ND,ND
2014-07-16,1,ND,ND
2014-07-17,0,ND,ND
2014-07-18,2,ND,ND
2014-07-19,9,ND,ND
2014-07-20,1,ND,ND
2014-07-21,1,ND,ND
2014-07-22,2,ND,ND
2014-07-23,0,ND,ND
2014-07-24,0,ND,ND
2014-07-25,0,ND,ND
2014-07-26,0,ND,ND
2014-07-27,0,ND,ND
2014-07-28,0,ND,ND
2014-07-29,0,ND,ND
2014-07-30,0,ND,ND
2014-07-31,0,ND,ND
2014-08-01,1,ND,ND
2014-08-02,9,ND,ND
2014-08-03,0,ND,ND
2014-08-04,0,ND,ND
2014-08-05,2,ND,ND
2014-08-06,4,ND,ND
2014-08-07,0,ND,ND
2014-08-08,2,ND,ND
2014-08-09,0,ND,ND
2014-08-10,19,ND,ND
2014-08-11,3,ND,ND
2014-08-12,0,ND,ND
2014-08-13,1,ND,ND
2014-08-14,0,ND,ND
2014-08-15,1,ND,ND
2014-08-16,0,ND,ND
2014-08-17,0,ND,ND
2014-08-18,0,ND,ND
2014-08-19,0,ND,ND
2014-08-20,0,ND,ND
2014-08-21,0,ND,ND
2014-08-22,0,ND,ND
2014-08-23,0,ND,ND
2014-08-24,0,ND,ND
2014-08-25,14,ND,ND
2014-08-26,4,ND,ND
2014-08-27,0,ND,ND
2014-08-28,1,ND,ND
2014-08-29,1,ND,ND
2014-08-30,0,ND,ND
2014-08-31,0,ND,ND
2014-09-01,1,ND,ND
2014-09-02,0,ND,ND
2014-09-03,0,ND,ND
2014-09-04,0,ND,ND
2014-09-05,0,ND,ND
2014-09-06,0,ND,ND
2014-09-07,0,ND,ND
2014-09-08,0,ND,ND
2014-09-09,0,ND,ND
2014-09-10,0,ND,ND
2014-09-11,0,ND,ND
2014-09-12,0,ND,ND
2014-09-13,0,ND,ND
2014-09-14,0,ND,ND
2014-09-15,2,ND,ND
2014-09-16,1,ND,ND
2014-09-17,0,ND,ND
2014-09-18,0,ND,ND
2014-09-19,2,ND,ND
2014-09-20,2,ND,ND
2014-09-21,0,ND,ND
2014-09-22,0,ND,ND
2014-09-23,0,ND,ND
2014-09-24,1,ND,ND
2014-09-25,0,ND,ND
2014-09-26,0,ND,ND
2014-09-27,0,ND,ND
2014-09-28,0,ND,ND
2014-09-29,0,ND,ND
2014-09-30,0,ND,ND
2014-10-01,0,ND,ND
2014-10-02,0,ND,ND
2014-10-03,0,ND,ND
2014-10-04,3,ND,ND
2014-10-05,0,ND,ND
2014-10-06,6,ND,ND
2014-10-07,3,ND,ND
2014-10-08,6,ND,ND
2014-10-09,2,ND,ND
2014-10-10,3,ND,ND
2014-10-11,5,ND,ND
2014-10-12,0,ND,ND
2014-10-13,9,ND,ND
2014-10-14,2,ND,ND
2014-10-15,2,ND,ND
2014-10-16,1,ND,ND
2014-10-17,1,ND,ND
2014-10-18,1,ND,ND
2014-10-19,0,ND,ND
2014-10-20,0,ND,ND
2014-10-21,0,ND,ND
2014-10-22,0,ND,ND
2014-10-23,0,ND,ND
2014-10-24,1,ND,ND
2014-10-25,0,ND,ND
2014-10-26,0,ND,ND
2014-10-27,0,ND,ND
2014-10-28,0,ND,ND
2014-10-29,2,ND,ND
2014-10-30,0,ND,ND
2014-10-31,0,ND,ND
2014-11-01,0,ND,ND
2014-11-02,2,ND,ND
2014-11-03,0,ND,ND
2014-11-04,2,ND,ND
2014-11-05,0.2,10.90,1.20
2014-11-06,11.1,12.90,-1.30
2014-11-07,4.6,12.00,6.50
2014-11-08,9.6,13.10,5.20
2014-11-09,2.1,12.20,1.40
2014-11-10,2,12.40,3.40
2014-11-11,5.8,11.90,7.90
2014-11-12,0.9,12.60,9.10
2014-11-13,8.3,13.50,8.00
2014-11-14,1.3,13.70,10.80
2014-11-15,0.3,10.80,5.10
2014-11-16,6.9,10.60,8.20
2014-11-17,0.7,9.60,7.70
2014-11-18,0.1,12.20,4.50
2014-11-19,0,15.00,5.00
2014-11-20,0,9.80,5.30
2014-11-21,6.7,13.40,3.50
2014-11-22,8.6,14.80,6.70
2014-11-23,0.2,8.60,6.80
2014-11-24,0.2,8.10,-2.10
2014-11-25,5.9,6.90,-2.30
2014-11-26,1.6,8.20,-1.60
2014-11-27,0,10.20,6.70
2014-11-28,1.6,11.60,5.90
2014-11-29,0.2,11.30,8.00
2014-11-30,0,11.70,4.30
2014-12-01,0.2,7.70,5.90
